FENGYUN 1C DEB, 33650

Orbit data source: Space-Track

FENGYUN 1C DEB, 33650 is space debris in SSO originally from a launch on Mon, 10 May 1999 UTC launched from the Taiyaun Space Center, China (TSC). Fengyun 1C debris stems from the Chinese weather satellite Fengyun-1C, which was intentionally destroyed by a Chinese anti-satellite missile in 2007. This event dramatically increased the amount of space debris, with thousands of trackable fragments posing hazards to satellites and human spaceflight. The Fengyun 1C debris cloud has become a focal point in discussions about space sustainability and the need for international regulations to prevent the creation of new debris.

Loading next visibility...
Identifier
33650, 1999-025DEK
Orbit
SSO
Country
Flag of CNCN / PRC
Related business
Manufacturer
Unknown
Mission
Spacecraft
Bus & Motor
Unknown
Mass
Unknown
Launch date (UTC)
1999-05-10 (27 years ago)
Launch vehicle
Unknown
Launch site
Taiyaun Space Center, China (TSC)
Object type
Payload
Rocket body
Debris
Shape & HBR
Unknown shape, 0.1 m
Radar Cross Section
Small (<0.1 m²)

Expand to show TLE details & history
Last TLE update: 1 day ago

TLE from 1 day ago
0 FENGYUN 1C DEB
1 33650U 99025DEK 26150.40927056  .00001456  00000-0  11193-2 0  9992
2 33650  99.0043 314.8206 0147207 340.2622  19.2876 13.89771631711512
Epoch: 2026-05-30T09:49Z
TLE epoch observation values (Epoch: 2026-05-30T09:49:20.976Z)
Latitude
-0.00006°
Longitude
-80.4425°
Altitude
830.918 km
Speed
7.489 km/s
True Right ascension
20h 59m 16s
True Declination
0° 00' 00"
Sunlit
Object was in daylight at epoch
Visualization orbit readout
Latitude
Unknown
Longitude
Unknown
Altitude
Unknown
Speed
Unknown
Apparent Right ascension
Unknown
Apparent Declination
Unknown
Sunlit
N/A
Visualization observer readout
Local Sidereal Time
20:13:58
Azimuth
Unknown
Elevation
Unknown
Doppler factor
Unknown
Orbital elements
Apogee altitude
1,034.175 km
Perigee altitude
819.112 km
Semi-major axis
7,304.781 km
Eccentricity
0.01472
Inclination
99.0043°
RAAN
314.8206°
Arg. of periapsis
340.2622°
True anomaly
19.85462°
Mean anomaly
19.2876°
Eccentric anomaly
19.57012°
Mean motion
3.47642 °/min
Orbital period
103.55 mins
BSTAR
0.0011193
Loading maneuver chart data...
Computing Atmospheric mass density...
Loading historical data...
Loading historical data...
Loading historical data...
Loading historical data...
Loading historical data...
Loading historical data...
Loading historical data...

Documentation

Showing up to 5 results
|